Temperature
-4 -4 -4 -4 -4 -5 -5 -4 -3 -3 -4 -4 -5 -6 -6 -6 -6 -6 -6 -6 -6 -6 -6 -6 -6 -6 -6 -6 -6 -6 -6 -6 -6 -6 -6 -6 -6 -6 -6 -6 -6 -6 -6 -6
-4 -4 -5 -5 -5 -5 -5 -5 -5 -5 -5 -6 -6 -6 -7 -7 -7 -7 -6 -6 -6 -6 -6 -6 -6 -6 -6 -6 -6 -7 -7 -7 -7 -7 -7 -7 -7 -7 -7 -7 -7 -7 -7 -6
-4 -5 -4 -4 -5 -6 -6 -7 -7 -5 -5 -7 -8 -8 -7 -7 -7 -7 -6 -6 -6 -6 -7 -7 -7 -7 -7 -7 -7 -7 -7 -7 -7 -7 -7 -7 -7 -7 -7 -7 -7 -7 -7 -7
-5 -5 -3 -3 -7 -7 -7 -7 -8 -8 -8 -8 -8 -8 -7 -6 -6 -6 -6 -7 -7 -7 -7 -7 -7 -7 -7 -7 -7 -8 -8 -8 -8 -8 -8 -8 -8 -8 -8 -8 -8 -8 -8 -8
-5 -5 -4 -4 -7 -8 -7 -7 -8 -9 -9 -9 -9 -9 -8 -6 -7 -7 -7 -7 -7 -7 -7 -8 -8 -8 -8 -8 -8 -8 -8 -8 -8 -8 -8 -8 -8 -8 -9 -9 -8 -8 -8 -8
-6 -4 -4 -4 -7 -8 -7 -6 -7 -8 -9 -9 -9 -8 -8 -7 -7 -7 -7 -8 -8 -8 -8 -8 -8 -8 -9 -9 -9 -9 -9 -9 -9 -9 -9 -9 -9 -9 -9 -9 -9 -9 -9 -9
-6 -5 -5 -7 -9 -8 -5 -4 -7 -7 -8 -9 -10 -8 -7 -7 -8 -8 -8 -8 -8 -8 -8 -8 -9 -9 -9 -9 -9 -9 -9 -10 -10 -9 -9 -9 -10 -10 -10 -10 -9 -9 -9 -9
-7 -6 -5 -9 -9 -7 -6 -7 -6 -7 -7 -8 -8 -8 -8 -8 -8 -8 -8 -8 -8 -9 -9 -9 -9 -9 -9 -9 -10 -10 -10 -10 -10 -10 -10 -10 -10 -10 -10 -10 -10 -10 -10 -10
-7 -6 -7 -8 -7 -7 -7 -7 -7 -7 -7 -7 -8 -8 -8 -8 -8 -9 -9 -9 -9 -9 -9 -9 -10 -10 -10 -10 -10 -10 -10 -10 -10 -10 -10 -11 -11 -11 -11 -11 -11 -11 -11 -11
-9 -9 -9 -8 -7 -7 -7 -7 -7 -7 -8 -8 -8 -8 -9 -9 -9 -9 -9 -9 -9 -9 -9 -9 -10 -10 -10 -10 -10 -11 -10 -10 -11 -11 -11 -11 -11 -11 -11 -11 -11 -11 -12 -12
-9 -9 -9 -8 -7 -7 -7 -7 -8 -8 -8 -8 -9 -9 -9 -9 -9 -10 -10 -10 -10 -10 -10 -10 -10 -10 -11 -11 -11 -11 -11 -11 -11 -11 -11 -11 -11 -11 -12 -12 -12 -12 -12 -13
-7 -8 -9 -7 -6 -7 -7 -7 -8 -8 -8 -9 -9 -9 -9 -10 -10 -10 -10 -10 -10 -10 -10 -10 -11 -11 -11 -11 -11 -11 -11 -11 -11 -11 -11 -11 -11 -11 -12 -12 -12 -12 -13 -13
-7 -7 -7 -7 -7 -7 -8 -8 -8 -8 -9 -9 -9 -10 -10 -10 -10 -10 -10 -10 -11 -11 -11 -11 -11 -11 -11 -11 -12 -12 -12 -12 -12 -12 -12 -12 -12 -12 -12 -12 -12 -12 -13 -13
-7 -8 -8 -7 -8 -8 -8 -8 -9 -9 -9 -9 -10 -10 -10 -10 -10 -11 -11 -11 -11 -11 -11 -11 -11 -11 -12 -12 -12 -12 -12 -12 -12 -12 -12 -12 -12 -13 -13 -13 -12 -12 -12 -13
-8 -8 -8 -8 -8 -9 -9 -9 -9 -9 -9 -10 -10 -10 -10 -11 -11 -11 -11 -11 -11 -11 -12 -12 -12 -12 -12 -12 -12 -12 -12 -12 -13 -13 -13 -13 -13 -13 -13 -13 -13 -13 -13 -13
-8 -8 -8 -9 -9 -9 -9 -9 -9 -10 -10 -10 -10 -11 -11 -11 -11 -11 -12 -12 -12 -12 -12 -12 -12 -12 -12 -12 -13 -13 -13 -13 -13 -13 -13 -13 -13 -13 -13 -14 -13 -13 -13 -13
-9 -9 -9 -9 -9 -9 -9 -9 -10 -10 -10 -10 -11 -11 -11 -11 -12 -12 -12 -12 -12 -12 -12 -12 -12 -13 -13 -13 -13 -13 -13 -13 -13 -14 -14 -14 -14 -14 -14 -14 -14 -14 -14 -14
-8 -8 -8 -8 -9 -9 -9 -10 -10 -10 -10 -11 -11 -11 -12 -12 -12 -12 -12 -12 -12 -12 -13 -13 -13 -13 -13 -13 -13 -13 -13 -14 -14 -14 -14 -14 -14 -14 -14 -14 -14 -14 -14 -14
-8 -9 -9 -9 -9 -9 -10 -10 -10 -10 -11 -11 -11 -11 -12 -12 -12 -13 -13 -13 -13 -13 -13 -13 -13 -13 -13 -13 -14 -14 -14 -14 -14 -14 -14 -14 -14 -14 -14 -15 -15 -15 -14 -14
-9 -9 -9 -9 -10 -10 -10 -10 -10 -11 -11 -11 -12 -12 -12 -12 -13 -13 -13 -13 -13 -13 -13 -13 -13 -14 -14 -14 -14 -14 -14 -14 -14 -14 -14 -15 -15 -15 -15 -15 -15 -15 -15 -15
-9 -9 -10 -10 -10 -10 -10 -11 -11 -11 -11 -12 -12 -12 -12 -13 -13 -13 -13 -13 -13 -14 -14 -14 -14 -14 -14 -14 -14 -14 -15 -15 -15 -15 -15 -15 -15 -15 -15 -15 -15 -15 -15 -15
-10 -10 -10 -10 -10 -11 -11 -11 -11 -11 -12 -12 -12 -13 -13 -13 -13 -13 -14 -14 -14 -14 -14 -14 -14 -14 -15 -15 -15 -15 -15 -15 -15 -15 -15 -15 -15 -15 -15 -15 -15 -15 -15 -15
-11 -11 -11 -11 -11 -11 -11 -12 -12 -12 -12 -12 -13 -13 -13 -13 -14 -14 -14 -14 -14 -14 -14 -14 -15 -15 -15 -15 -15 -15 -15 -15 -15 -15 -15 -16 -16 -16 -16 -16 -16 -16 -15 -15
-11 -11 -11 -11 -12 -12 -12 -12 -12 -13 -13 -13 -13 -13 -14 -14 -14 -14 -14 -14 -15 -15 -15 -15 -15 -15 -15 -15 -15 -15 -16 -16 -16 -16 -16 -16 -16 -16 -16 -16 -16 -16 -16 -16
-11 -12 -12 -12 -12 -12 -12 -13 -13 -13 -13 -13 -14 -14 -14 -14 -14 -15 -15 -15 -15 -15 -15 -15 -15 -15 -16 -16 -16 -16 -16 -16 -16 -16 -16 -16 -16 -16 -16 -16 -16 -16 -16 -16
-12 -12 -12 -12 -12 -13 -13 -13 -13 -13 -14 -14 -14 -14 -15 -15 -15 -15 -15 -15 -15 -15 -16 -16 -16 -16 -16 -16 -16 -16 -16 -16 -16 -16 -16 -16 -16 -16 -16 -16 -16 -16 -16 -16
-12 -12 -13 -13 -13 -13 -13 -14 -14 -14 -14 -14 -14 -15 -15 -15 -15 -15 -15 -16 -16 -16 -16 -16 -16 -16 -16 -17 -17 -17 -17 -17 -17 -17 -17 -17 -17 -17 -17 -16 -16 -16 -16 -16
Wind_Speed
5 3 3 5 6 7 9 9 9 8 8 10 7 5 4 3 3 3 3 3 3 3 4 4 3 4 4 4 4 4 3 3 4 4 4 4 4 5 5 5 6 6 6 6
3 2 3 6 9 9 10 8 10 9 11 7 4 2 3 3 3 4 5 4 4 4 4 4 4 4 4 4 4 3 3 4 4 4 4 4 4 5 5 5 6 6 6 6
4 2 3 8 8 9 6 7 8 11 10 3 3 4 4 5 5 6 5 5 5 4 4 4 4 4 5 5 3 3 3 4 4 4 4 5 5 5 5 5 6 6 6 6
1 2 6 6 1 5 6 7 8 7 5 4 5 4 4 4 5 6 5 5 5 4 4 4 3 4 4 3 2 3 3 4 4 4 4 5 5 5 5 5 5 5 6 6
2 3 8 6 2 4 5 7 7 9 8 5 2 3 3 3 4 5 5 4 4 4 4 3 4 3 2 2 2 3 4 4 4 4 4 5 5 5 5 5 5 5 6 6
3 3 7 6 2 2 3 5 3 6 6 4 1 2 4 1 1 3 3 3 3 3 2 3 3 2 2 3 3 4 5 5 4 4 4 5 5 5 5 5 6 6 6 6
5 6 8 4 2 3 3 6 2 4 5 5 5 5 3 1 2 2 3 3 3 2 2 3 3 1 2 3 4 5 5 4 4 4 5 5 5 4 4 5 5 5 6 7
5 5 8 3 5 6 6 1 1 2 3 4 5 4 3 2 2 2 3 3 2 2 3 3 2 2 3 5 5 4 4 4 4 4 4 4 4 4 4 4 5 5 6 7
8 8 3 5 6 4 1 2 3 3 3 3 3 4 3 3 3 3 3 3 2 2 4 3 2 2 4 5 4 3 3 4 4 5 4 4 4 4 4 3 4 5 5 6
5 7 5 5 5 4 3 4 3 3 2 3 4 4 4 3 3 3 3 3 2 2 3 4 3 3 4 4 3 3 3 4 4 4 4 4 4 3 3 3 4 5 5 5
6 6 4 5 6 6 4 3 2 2 2 3 3 4 3 3 4 3 3 3 2 3 4 5 4 4 5 4 3 3 4 4 4 4 4 4 4 4 5 5 5 5 5 5
7 5 5 5 3 4 4 4 4 3 3 2 3 4 4 4 4 3 4 3 3 4 5 5 4 5 5 4 3 3 4 4 4 3 3 4 4 5 8 8 10 11 10 9
6 3 4 5 2 2 3 4 4 4 4 4 3 4 4 4 3 3 3 4 4 5 5 5 5 5 5 4 3 3 4 4 4 4 4 4 4 5 6 7 9 10 11 11
4 2 3 3 4 3 3 3 2 2 3 3 3 3 3 3 3 4 4 5 5 4 5 5 5 6 5 4 4 4 4 6 5 4 4 4 4 5 5 5 6 6 8 11
4 4 5 3 2 2 2 1 1 3 3 3 3 3 3 4 4 5 5 4 4 4 5 4 5 6 5 4 4 5 4 4 4 4 4 4 4 4 5 5 6 6 5 7
4 3 4 4 5 4 2 2 4 5 4 4 4 4 4 4 5 5 4 3 3 5 5 5 6 6 5 4 4 4 4 7 6 4 4 4 4 4 5 5 5 5 6 6
3 4 4 5 6 5 5 6 6 6 5 5 5 4 4 4 4 5 4 4 4 6 6 6 7 6 4 4 4 4 4 5 7 5 4 4 4 5 5 5 5 6 6 7
7 7 6 6 6 6 6 5 5 5 5 5 4 3 3 4 5 6 5 4 4 5 6 6 6 5 4 4 4 4 4 4 4 4 4 4 5 4 5 5 6 6 6 7
5 6 6 5 5 5 5 5 5 4 4 3 3 4 4 5 5 5 4 4 4 6 6 5 7 5 4 5 5 3 4 4 4 4 4 6 6 5 5 5 6 6 6 6
4 3 4 4 3 3 4 4 3 3 3 3 3 4 4 5 4 4 4 4 5 5 5 6 5 4 5 5 6 3 4 4 5 5 4 4 5 5 5 5 6 6 6 6
3 3 3 3 3 3 3 3 3 4 3 3 4 5 5 5 4 3 3 5 5 5 5 7 4 4 4 5 6 3 3 4 4 5 5 5 5 5 5 6 6 6 6 6
3 3 3 3 3 3 3 3 3 4 3 3 4 4 4 4 4 4 4 5 5 7 5 4 4 6 6 6 2 3 3 4 4 4 4 5 5 6 6 6 6 6 6 6
3 3 3 3 3 3 3 3 3 3 4 4 4 4 4 4 4 4 5 4 4 7 5 4 6 9 9 4 2 3 4 4 5 5 5 5 5 6 6 6 6 6 6 6
3 3 3 2 1 2 3 3 3 3 4 4 4 4 4 3 4 4 4 7 8 8 4 7 9 9 7 2 3 3 4 5 5 5 5 5 5 6 6 6 6 6 6 7
3 2 2 1 2 3 3 3 2 2 3 3 3 4 3 3 4 4 4 5 7 7 4 6 9 9 5 3 4 4 5 5 6 5 5 6 6 6 6 6 6 6 6 6
2 2 3 3 3 3 2 2 2 2 2 3 3 3 3 3 3 4 4 4 5 7 5 4 5 6 4 4 5 5 5 6 7 6 6 6 6 6 6 6 7 7 7 7
2 2 2 2 2 2 2 2 3 3 3 3 4 3 3 3 3 3 4 4 4 4 4 4 4 4 4 5 5 6 6 6 6 6 6 6 6 6 7 7 7 7 7 8
Wind_Direction
249 251 204 224 224 200 206 212 220 240 240 261 257 252 254 257 274 295 299 301 295 294 296 303 311 315 315 313 317 321 324 321 315 320 325 328 329 330 330 331 327 324 323 321
272 247 248 265 249 220 223 231 239 260 269 265 266 241 252 257 260 268 274 279 290 293 294 297 301 307 312 308 309 315 312 309 318 326 327 328 326 328 329 328 325 324 321 318
269 311 323 271 239 208 212 216 205 232 248 259 274 257 246 249 251 251 262 272 281 284 281 286 291 296 295 295 303 308 307 311 319 323 322 322 323 328 325 322 323 321 318 317
263 19 248 245 152 184 210 240 223 239 263 255 254 278 268 243 233 247 257 268 279 284 290 292 292 297 296 300 302 304 306 308 313 316 315 318 321 319 316 315 314 314 313 312
180 253 274 285 217 168 196 269 225 227 250 264 301 332 296 240 215 235 250 260 266 268 273 284 288 292 295 300 304 307 302 300 303 306 306 311 311 309 308 308 308 308 307 311
169 219 248 257 212 178 130 284 243 203 229 237 126 285 272 266 241 262 271 270 274 283 281 281 284 288 284 292 300 292 290 292 295 296 293 293 295 298 299 299 301 307 310 312
206 233 261 256 182 135 177 257 258 198 210 193 199 225 259 299 292 273 276 280 281 279 279 274 276 259 273 285 280 282 291 293 294 292 287 284 290 293 297 300 306 309 309 309
184 218 253 178 145 189 225 276 203 210 210 203 221 251 273 283 286 293 297 296 286 280 285 284 262 235 267 275 278 289 290 290 291 291 291 295 290 294 297 299 304 307 310 313
200 220 256 180 204 230 209 228 235 220 234 207 225 249 261 268 273 280 280 283 280 266 286 291 266 233 257 276 286 289 290 289 289 292 290 291 285 288 295 296 298 302 305 309
248 260 251 233 246 257 234 229 242 232 231 208 223 240 256 265 275 283 287 287 284 280 287 291 285 269 259 277 281 277 284 290 290 289 291 290 288 283 283 282 285 292 297 300
250 270 298 262 235 241 248 253 264 265 233 217 218 244 246 262 271 274 289 291 280 270 273 278 282 277 281 284 275 276 282 286 288 287 286 291 290 278 276 267 269 278 281 283
238 228 218 252 241 221 222 240 243 249 266 252 221 239 252 261 264 268 279 283 284 278 277 281 284 284 285 281 268 268 286 290 287 286 287 289 294 298 295 291 293 291 290 289
241 254 238 265 259 207 218 237 244 235 235 250 245 235 243 255 263 268 278 279 275 277 280 284 286 285 284 278 269 259 266 278 282 283 284 287 289 294 303 308 302 300 301 300
240 244 266 254 248 251 236 238 239 244 245 240 243 243 243 254 268 272 273 273 275 277 281 283 284 284 286 277 271 269 269 278 282 275 274 276 277 279 284 293 303 302 303 304
251 238 238 253 266 268 249 215 227 257 257 259 245 244 244 253 265 272 278 285 289 285 281 282 284 287 291 278 274 272 272 271 271 273 273 272 275 279 279 281 285 292 299 304
269 260 241 244 250 254 241 227 237 251 252 252 252 254 253 256 266 273 277 273 273 279 280 280 280 284 286 277 277 278 273 282 287 282 278 278 277 279 281 281 283 286 289 293
228 251 244 253 253 249 240 236 237 245 248 249 252 257 261 268 277 279 281 276 265 271 272 270 274 282 279 270 266 272 273 281 291 293 285 279 278 276 278 279 281 283 282 287
232 237 233 230 235 242 248 246 244 244 245 248 253 253 254 258 267 277 285 291 291 290 279 269 271 277 272 268 264 265 268 272 275 275 276 276 276 274 277 279 281 284 289 294
248 246 249 247 240 233 237 242 242 241 244 240 239 248 254 257 263 274 284 285 285 289 288 283 294 296 280 276 285 264 267 273 277 277 275 283 289 284 280 281 283 285 288 291
263 261 256 257 247 235 241 245 240 242 241 230 240 256 266 269 269 274 277 272 263 264 280 289 289 281 278 281 291 275 271 272 275 279 279 275 279 283 283 284 284 286 287 287
273 275 269 261 262 258 246 239 232 240 242 226 231 246 259 270 267 263 271 284 283 275 284 296 299 286 285 290 292 277 272 274 277 278 280 282 283 283 284 285 286 286 286 287
271 268 263 259 261 274 272 251 237 236 240 242 247 251 260 272 272 270 258 260 280 296 301 287 285 292 303 307 294 285 284 283 283 284 282 282 282 283 284 285 284 284 285 284
272 266 262 256 258 271 282 263 244 235 238 243 245 244 249 257 260 264 281 275 277 293 301 288 296 305 312 320 304 292 289 288 286 284 282 279 278 278 280 282 282 283 283 284
281 281 276 273 270 270 274 277 267 256 249 253 252 248 249 265 274 261 260 290 302 302 298 298 308 310 317 321 298 290 287 286 285 284 283 281 278 277 278 280 281 282 282 282
285 283 273 264 263 266 268 278 284 275 266 266 267 264 256 250 260 279 279 280 293 301 299 302 308 313 316 301 292 287 284 281 282 283 281 285 283 282 282 282 282 283 283 283
281 277 269 265 266 270 269 266 269 273 275 281 283 277 271 265 263 272 277 278 282 294 297 293 296 300 295 289 286 286 285 288 292 290 286 286 286 283 282 283 282 283 282 282
298 296 295 299 297 283 272 264 264 269 267 267 279 277 273 276 278 280 281 282 284 288 288 287 286 285 286 286 287 287 287 286 285 283 283 282 282 281 280 279 281 281 282 281
Height
1512 1511 1512 1511 1511 1514 1515 1510 1508 1500 1501 1492 1492 1492 1492 1492 1491 1491 1490 1490 1490 1489 1489 1488 1487 1486 1485 1484 1483 1482 1481 1480 1479 1478 1477 1475 1474 1473 1471 1470 1469 1468 1467 1466
1511 1510 1512 1510 1506 1508 1508 1507 1505 1500 1496 1489 1489 1490 1490 1489 1489 1488 1488 1488 1487 1487 1486 1485 1484 1483 1482 1481 1480 1479 1478 1477 1476 1475 1474 1472 1471 1470 1468 1467 1466 1465 1464 1462
1510 1511 1508 1502 1497 1501 1502 1501 1500 1496 1489 1488 1488 1487 1486 1486 1486 1485 1485 1485 1485 1484 1483 1483 1482 1481 1479 1479 1478 1477 1475 1474 1473 1472 1471 1469 1468 1467 1465 1464 1463 1461 1460 1459
1512 1511 1504 1490 1493 1493 1494 1493 1493 1490 1487 1486 1486 1485 1484 1483 1483 1483 1483 1482 1482 1481 1480 1480 1479 1478 1477 1476 1475 1474 1472 1471 1470 1469 1467 1466 1465 1463 1462 1461 1459 1458 1457 1455
1513 1511 1500 1491 1491 1493 1494 1489 1486 1486 1484 1484 1484 1483 1481 1481 1481 1481 1481 1480 1479 1479 1478 1477 1476 1475 1474 1473 1472 1470 1469 1468 1467 1466 1464 1463 1462 1460 1459 1457 1456 1454 1453 1452
1512 1507 1497 1487 1489 1489 1491 1487 1480 1481 1481 1482 1483 1485 1480 1479 1479 1478 1478 1477 1476 1476 1475 1474 1473 1472 1471 1470 1469 1467 1466 1465 1464 1462 1461 1459 1458 1457 1456 1454 1452 1451 1449 1448
1509 1505 1494 1488 1488 1489 1490 1481 1478 1477 1477 1479 1480 1479 1478 1477 1476 1476 1475 1475 1474 1473 1472 1471 1470 1469 1468 1467 1466 1465 1463 1462 1461 1459 1458 1456 1455 1454 1452 1450 1449 1447 1445 1444
1506 1503 1492 1486 1486 1486 1480 1477 1476 1475 1476 1476 1475 1475 1475 1474 1474 1473 1473 1472 1471 1470 1469 1468 1467 1466 1464 1463 1463 1461 1460 1459 1457 1456 1455 1453 1452 1450 1449 1447 1445 1443 1441 1440
1492 1486 1480 1479 1478 1477 1476 1475 1474 1474 1474 1474 1473 1473 1472 1472 1471 1471 1470 1469 1468 1467 1466 1465 1464 1463 1461 1461 1459 1458 1457 1455 1454 1453 1451 1450 1448 1446 1445 1443 1441 1439 1438 1436
1488 1480 1477 1476 1475 1474 1474 1473 1472 1472 1472 1471 1471 1470 1470 1469 1469 1468 1467 1466 1465 1464 1463 1462 1461 1460 1459 1457 1456 1454 1453 1452 1451 1449 1447 1446 1444 1443 1441 1439 1438 1436 1434 1433
1482 1476 1474 1471 1471 1471 1471 1470 1470 1469 1469 1469 1468 1468 1467 1466 1466 1465 1464 1463 1462 1461 1460 1459 1458 1457 1455 1454 1452 1451 1450 1448 1447 1445 1444 1442 1441 1439 1437 1436 1435 1433 1432 1430
1472 1469 1470 1467 1467 1468 1467 1467 1467 1466 1465 1465 1465 1464 1464 1463 1463 1462 1461 1460 1459 1458 1457 1455 1454 1453 1452 1451 1449 1448 1446 1445 1443 1442 1440 1438 1437 1435 1434 1433 1431 1430 1429 1428
1466 1465 1465 1464 1464 1465 1464 1464 1464 1463 1463 1462 1462 1461 1461 1460 1460 1459 1458 1457 1456 1455 1453 1452 1450 1449 1448 1447 1446 1444 1442 1441 1440 1438 1436 1435 1433 1431 1429 1429 1428 1426 1425 1423
1463 1463 1461 1461 1461 1461 1461 1461 1461 1460 1460 1459 1459 1458 1457 1457 1456 1455 1454 1453 1452 1451 1450 1448 1447 1446 1445 1443 1442 1440 1439 1437 1436 1434 1433 1431 1429 1428 1426 1424 1422 1421 1421 1419
1460 1459 1459 1458 1458 1458 1458 1457 1457 1456 1456 1456 1455 1455 1454 1453 1453 1452 1451 1450 1449 1447 1446 1445 1443 1442 1441 1439 1438 1437 1435 1434 1432 1430 1429 1427 1426 1424 1422 1421 1419 1417 1416 1415
1456 1456 1455 1454 1454 1454 1454 1454 1453 1452 1452 1452 1451 1451 1451 1450 1449 1448 1447 1446 1445 1443 1442 1441 1439 1438 1437 1436 1434 1433 1431 1430 1428 1427 1425 1423 1422 1420 1418 1417 1415 1413 1411 1410
1452 1451 1451 1450 1450 1450 1450 1450 1450 1449 1449 1448 1448 1448 1447 1446 1445 1444 1443 1442 1441 1440 1439 1437 1436 1435 1433 1432 1431 1429 1427 1426 1425 1423 1421 1420 1418 1416 1415 1413 1411 1409 1408 1407
1449 1448 1448 1447 1446 1446 1446 1446 1446 1446 1445 1445 1445 1444 1443 1442 1441 1440 1439 1438 1437 1436 1435 1434 1432 1431 1430 1428 1427 1425 1424 1422 1421 1419 1418 1416 1414 1413 1411 1409 1407 1405 1403 1402
1445 1444 1444 1444 1443 1443 1442 1442 1442 1442 1442 1441 1441 1440 1440 1439 1438 1437 1436 1434 1433 1432 1431 1430 1429 1427 1426 1425 1423 1421 1420 1418 1417 1415 1414 1412 1411 1409 1407 1405 1403 1401 1399 1398
1441 1441 1441 1440 1440 1440 1439 1439 1439 1438 1438 1438 1437 1436 1436 1435 1434 1433 1432 1431 1430 1428 1427 1426 1425 1424 1422 1421 1419 1418 1416 1415 1413 1411 1410 1408 1406 1404 1403 1401 1399 1397 1395 1394
1438 1438 1437 1437 1436 1436 1436 1435 1435 1434 1434 1434 1433 1432 1432 1431 1430 1429 1428 1426 1426 1425 1424 1423 1421 1420 1418 1417 1416 1414 1412 1410 1409 1407 1405 1404 1402 1400 1398 1396 1395 1393 1391 1390
1435 1435 1434 1433 1433 1432 1432 1432 1432 1431 1431 1430 1430 1429 1428 1427 1426 1425 1424 1424 1422 1421 1420 1419 1417 1416 1415 1413 1412 1410 1408 1406 1404 1403 1401 1399 1397 1395 1393 1392 1390 1388 1387 1385
1433 1432 1431 1430 1430 1429 1429 1429 1428 1428 1427 1426 1426 1425 1424 1423 1423 1421 1420 1420 1419 1418 1416 1415 1414 1413 1411 1409 1407 1406 1404 1402 1400 1398 1396 1394 1392 1391 1389 1387 1385 1384 1382 1380
1430 1429 1428 1427 1427 1426 1425 1425 1425 1424 1424 1423 1423 1422 1421 1420 1419 1419 1417 1416 1415 1414 1412 1411 1410 1408 1407 1405 1403 1401 1399 1397 1395 1393 1392 1390 1388 1386 1384 1382 1381 1379 1377 1376
1427 1426 1425 1424 1424 1423 1422 1422 1421 1421 1420 1420 1419 1419 1418 1417 1416 1415 1414 1412 1411 1410 1408 1407 1405 1404 1402 1400 1398 1396 1394 1393 1391 1389 1387 1385 1383 1382 1380 1378 1376 1375 1373 1371
1424 1424 1423 1422 1421 1421 1420 1419 1418 1417 1416 1416 1415 1415 1414 1414 1413 1411 1410 1409 1407 1406 1404 1403 1401 1399 1397 1395 1394 1392 1390 1388 1386 1384 1382 1380 1379 1377 1375 1373 1372 1370 1368 1367
1422 1421 1420 1419 1418 1418 1417 1416 1415 1414 1413 1412 1412 1411 1411 1410 1408 1407 1406 1405 1403 1402 1400 1399 1397 1395 1393 1391 1389 1387 1385 1383 1381 1379 1378 1376 1374 1372 1371 1369 1367 1365 1364 1362